Regional Weather Roundup
Issued by NWS

Home | Current Version | Previous Version | Text Only | Print | Product List | Glossary On
Versions: 1 2 3 4 5 6 7 8 9 10 11 12 13 14 15 16 17 18 19 20 21 22 23 24 25 26 27 28 29 30 31 32 33 34 35 36 37 38 39 40 41 42 43 44 45 46 47 48 49 50
000
ASUS43 KMKX 250731
RWRWI

WISCONSIN REGIONAL WEATHER ROUNDUP
NATIONAL WEATHER SERVICE MILWAUKEE/SULLIVAN WI
300 AM CDT MON MAY 25 2015

NOTE: "FAIR" INDICATES FEW OR NO CLOUDS BELOW 12,000 FEET WITH NO
SIGNIFICANT WEATHER AND/OR OBSTRUCTIONS TO VISIBILITY.

WIZ001-002-006>008-014>016-023>028-250900-
NORTHWEST WISCONSIN

CITY           SKY/WX    TMP DP  RH WIND       PRES   REMARKS
SUPERIOR ARPT  DRIZZLE   48  47  95 NE7       29.84F
ASHLAND        LGT RAIN  57  57 100 NE6       29.86F FOG
HAYWARD        LGT RAIN  58  55  90 E7        29.82F FOG
SIREN          LGT RAIN  57  56  97 E7        29.78F
CUMBERLAND     DRIZZLE   55  54  94 E8        29.78F
RICE LAKE      DRIZZLE   57  55  92 E7        29.79F
CHETEK         RAIN      56  56  97 E7G18     29.77F
LADYSMITH      DRIZZLE   57  56  97 E7        29.81F
EAU CLAIRE     RAIN      57  55  93 E5        29.75F FOG
MENOMONIE      RAIN      57  56  97 E6        29.77F
NEW RICHMOND   DRIZZLE   56  56 100 E8        29.76F
OSCEOLA        DRIZZLE   58  58 100 E8        29.78F
$$

WIZ003>005-009-010-017-018-250900-
NORTH CENTRAL WISCONSIN

CITY           SKY/WX    TMP DP  RH WIND       PRES   REMARKS
MANITOWISH WTR HVY RAIN  56  56 100 E8        29.86F
ARBOR VITAE    RAIN      57  55  95 E5        29.85F
WOODRUFF       RAIN      57  55  95 E5        29.85F
RHINELANDER    LGT RAIN  56  54  93 E12       29.86F
EAGLE RIVER    HVY RAIN  56  56  99 E7        29.86F
LAND O LAKES   RAIN      56  56  98 E7        29.89F
PHILLIPS       DRIZZLE   56  55  98 E6        29.82F
TOMAHAWK       DRIZZLE   55  54  96 E3        29.84F
MEDFORD        HVY RAIN  54  54  99 E9G16     29.80F
MERRILL        RAIN      56  56 100 E6        29.84F
$$

WIZ029-030-035-036-043>047-250900-
CENTRAL WISCONSIN

CITY           SKY/WX    TMP DP  RH WIND       PRES   REMARKS
WAUSAU         LGT RAIN  56  55  97 E9        29.81F
MOSINEE        CLOUDY    54  54 100 E9        29.82F
MARSHFIELD     CLOUDY    57  54  89 SE12      29.79F FOG
STEVENS POINT  CLOUDY    55  54  98 E8        29.82F FOG
WAUPACA        CLOUDY    59  58  97 E3        29.84F FOG
WAUTOMA        CLOUDY    58  58 100 E5        29.83F FOG
WISC RAPIDS    LGT RAIN  58  55  90 SE7       29.81F
CAMP DOUGLAS   CLOUDY    59  59 100 SE9       29.77F FOG
$$

WIZ011>013-019>022-031-037>040-048>050-250900-
NORTHEAST WISCONSIN

CITY           SKY/WX    TMP DP  RH WIND       PRES   REMARKS
ANTIGO         DRIZZLE   54  54  99 E13       29.86F
SHAWANO        LGT RAIN  58  57  96 E6        29.86F
OCONTO         CLOUDY    56  56 100 E7        29.87F
STURGEON BAY   CLOUDY    55  52  88 SE9       29.90F
GREEN BAY      CLOUDY    59  57  93 E6        29.86F FOG
MANITOWOC      CLOUDY    53  53 100 SE3       29.87F FOG
APPLETON       CLOUDY    55  55 100 E6        29.84F FOG
CLINTONVILLE   CLOUDY    55  55 100 E3        29.85F
OSHKOSH        CLOUDY    60  57  89 SE8       29.83F FOG
$$

WIZ032>034-041-042-053>061-250900-
SOUTHWEST WISCONSIN

CITY           SKY/WX    TMP DP  RH WIND       PRES   REMARKS
LA CROSSE      CLOUDY    61  59  93 SE3       29.74F FOG
SPARTA         CLOUDY    59  58  96 SE9       29.76F FOG
VIROQUA        CLOUDY    61  61 100 SE9       29.76F VSB 3/4
BOSCOBEL       CLOUDY    61  59  93 NE3       29.76F FOG
PRAIRIE DU CHI CLOUDY    67  64  90 SE7       29.75F
PLATTEVILLE    CLOUDY    66  65  97 S10       29.79F
$$

WIZ056-057-062-063-064-067-068-250900-
SOUTH CENTRAL WISCONSIN

CITY           SKY/WX    TMP DP  RH WIND       PRES   REMARKS
REEDSBURG      CLOUDY    60  60 100 SE3       29.78F FOG
BARABOO/DELLS  CLOUDY    61  59  94 S7        29.79F FOG
LONE ROCK      LGT RAIN  62  60  93 E7        29.78F FOG
MINERAL POINT  LGT RAIN  64  63  94 SE8       29.79F
MADISON        LGT RAIN  64  62  93 S8        29.81F FOG
MIDDLETON      CLOUDY    63  63 100 E5        29.81F
WATERTOWN      DRIZZLE   63  63 100 SE7       29.83F
MONROE         DRIZZLE   66  64  94 S12G18    29.81F
JANESVILLE     RAIN      66  64  94 S12       29.83F
$$

WIZ051-052-058>065-066-070>072-250900-
SOUTHEAST WISCONSIN

CITY           SKY/WX    TMP DP  RH WIND       PRES   REMARKS
MILWAUKEE      CLOUDY    58  56  93 E5        29.86F FOG
WAUKESHA       HVY RAIN  59  59 100 S3        29.88F
MILWAUKEE/TIMM DRIZZLE   55  54  94 CALM      29.87F
RACINE         CLOUDY    61  59  93 E5        29.88F FOG
BURLINGTON     RAIN      59  59  99 CALM      29.86F
KENOSHA        CLOUDY    61  60  97 E3        29.85F FOG
FOND DU LAC    CLOUDY    60  58  92 S8        29.84F
SHEBOYGAN      LGT RAIN  55  53  93 CALM      29.86F FOG
WEST BEND      CLOUDY    57  55  94 CALM      29.86F FOG
JUNEAU         CLOUDY    60  59  97 SE9       29.85F FOG
$$

LSZ147-162-250900-
LAKE SUPERIOR

STATION/POSITION TIME  TEMP    WIND        PRES    WAVE
                       AIR SEA DIR/SP/G            HT/PER
                 (UTC) (F)     (DEG/KT/KT) (MB)    (FT/S)
W MID LAKE BUOY  0650   44 37   90/  6/  6   N/A     0
DEVILS ISLAND    0700   55      30/  7/  7   N/A
PORT WING        0600   51      30/  5/  8   N/A
SAXON HARBOR     0600   55        CALM       N/A
$$

LMZ867-665-643>646-250900-
LAKE MICHIGAN

STATION/POSITION TIME  TEMP    WIND        PRES    WAVE
                       AIR SEA DIR/SP/G            HT/PER
                 (UTC) (F)     (DEG/KT/KT) (MB)    (FT/S)
CHAMBERS ISLAND  0600   51      20/  8/ 11   N/A
N MID LAKE BUOY  0650   45 36  110/ 14/ 16   N/A     1
NORTHPORT PIER   0600   50      70/  7/  9   N/A
SISTER BAY       0617   54      90/  5/  9   N/A
KEWAUNEE LAKESHO 0700   48      50/  5/  7   N/A
SHEBOYGAN LAKESH 0700   49     130/  4/  5   N/A
PORT WASHINGTON  0620   51      40/  6/  7   N/A
ATWATER BUOY     0700   49 46   80/  6/  8   N/A
MILWAUKEE LAKESH 0700   50      40/  4/  5   N/A
S MID LAKE BUOY  0650   48 38  170/ 14/ 16   N/A     1
$$

TC  - TEMPERATURE IN CELSIUS
VSB - VISIBILITY IN STATUTE MILES
WCI - WIND CHILL INDEX
HX  - HEAT INDEX




USA.gov is the U.S. government's official web portal to all federal, state and local government web resources and services.